If you wish to contribute or participate in the discussions about articles you are invited to join SKYbrary as a registered user

 Actions

Annecy-Haute-Savoie-Mont Blanc Airport

From SKYbrary Wiki

LFLP
Airport
ICAO: LFLP – IATA: NCY
Summary
Name Annecy-Haute-Savoie-Mont Blanc Airport
Region Europe
Territory France FR.gif
Location , Rhone-Alpes
Serving Annecy
Elevation 463.601 m
1,521 ft
1,521 ft463.601 m
Type medium airport
Coordinates 45° 55' 45.24" N, 6° 5' 55.55" E
Runways
Designator Length Width Surface ROPS
4/22 1630 m5,347.769 ft
30 m98.425 ft
ASP yes/yes


METAR
Observation LFLP 261530Z AUTO 27005KT 240V310 CAVOK 34/23 Q1022 NOSIG
Station ANNECY/MEYTHET
Date/Time 26 June 2019 15:30:00
Wind direction 270°
Wind speed 05 kts
Lowest cloud amount clouds and visibility OK
Temperature 34°C
Dew point 23°C
Humidity 52%
QNH 1022 hPa
Weather condition n/a